User: anonymous   Login
Location: Caltech
(34.1382°N, 118.1253°W)
Time: 19:30:14
(UTC-07:00)
Language:

Cosmos 2219 - Orbit

View from above orbital plane
View from above orbital plane
View from above satellite
View from above satellite

Ground track
Ground track

The orbit data is extracted from the following two-line orbital elements,

1 22219U 92076A   15245.13725630  .00000290  00000-0  17853-3 0  9992
2 22219  71.0589 123.8914 0019420 304.1182  55.8097 14.13559224175789
Epoch (UTC): 02 September 2015 03:17:38
Eccentricity: 0.0019420
inclination: 71.0589°
perigee height: 833 km
apogee height: 861 km
right ascension of ascending node: 123.8914°
argument of perigee: 304.1182°
revolutions per day: 14.13559224
mean anomaly at epoch: 55.8097°
orbit number at epoch: 17578

The dashed part of the orbit path shows where the satellite is in the earth's shadow,  

DLR